TimeEDT,TemperatureF,Dew PointF,Humidity,Sea Level PressureIn,VisibilityMPH,Wind Direction,Wind SpeedMPH,Gust SpeedMPH,PrecipitationIn,Events,Conditions,WindDirDegrees,DateUTC
12:54 AM,69.1,57.0,65,30.12,10.0,NNE,3.5,-,N/A,,Overcast,20,2007-06-01 04:54:00
1:54 AM,68.0,57.0,68,30.09,10.0,Calm,Calm,-,N/A,,Mostly Cloudy,0,2007-06-01 05:54:00
2:54 AM,64.9,55.9,73,30.09,9.0,Calm,Calm,-,N/A,,Clear,0,2007-06-01 06:54:00
3:54 AM,64.0,55.9,75,30.09,8.0,Calm,Calm,-,N/A,,Mostly Cloudy,0,2007-06-01 07:54:00
4:54 AM,62.1,55.9,80,30.09,8.0,Calm,Calm,-,N/A,,Clear,0,2007-06-01 08:54:00
5:54 AM,61.0,55.0,81,30.09,8.0,Calm,Calm,-,N/A,,Clear,0,2007-06-01 09:54:00
6:54 AM,60.1,55.0,83,30.10,5.0,Calm,Calm,-,N/A,,Haze,0,2007-06-01 10:54:00
7:54 AM,62.1,55.9,80,30.11,6.0,Calm,Calm,-,N/A,,Haze,0,2007-06-01 11:54:00
8:54 AM,66.0,55.9,70,30.10,7.0,Calm,Calm,-,N/A,,Clear,0,2007-06-01 12:54:00
9:54 AM,70.0,57.0,63,30.09,4.0,SSE,3.5,-,N/A,,Haze,160,2007-06-01 13:54:00
10:54 AM,75.0,57.0,53,30.08,7.0,SSE,4.6,-,N/A,,Clear,150,2007-06-01 14:54:00
11:54 AM,79.0,57.0,47,30.07,7.0,Variable,5.8,-,N/A,,Partly Cloudy,0,2007-06-01 15:54:00
12:54 PM,82.0,55.9,41,30.05,7.0,Variable,3.5,-,N/A,,Clear,0,2007-06-01 16:54:00
1:54 PM,81.0,57.0,44,30.03,6.0,Variable,6.9,-,N/A,,Haze,0,2007-06-01 17:54:00
2:54 PM,75.0,55.9,51,30.04,7.0,North,19.6,25.3,N/A,,Mostly Cloudy,350,2007-06-01 18:54:00
3:11 PM,69.8,53.6,56,30.12,10.0,WNW,9.2,18.4,N/A,,Mostly Cloudy,300,2007-06-01 19:11:00
3:54 PM,72.0,57.0,59,30.04,8.0,North,3.5,-,N/A,,Partly Cloudy,350,2007-06-01 19:54:00
4:54 PM,72.0,57.9,61,30.04,9.0,North,10.4,-,N/A,,Clear,350,2007-06-01 20:54:00
5:54 PM,69.1,59.0,70,30.05,8.0,NNW,13.8,-,N/A,,Clear,340,2007-06-01 21:54:00
6:54 PM,69.1,59.0,70,30.03,8.0,NNW,6.9,-,N/A,,Overcast,340,2007-06-01 22:54:00
7:54 PM,69.1,60.1,73,30.02,7.0,NNW,8.1,-,N/A,,Scattered Clouds,330,2007-06-01 23:54:00
8:54 PM,66.9,60.1,79,30.04,8.0,NW,3.5,-,N/A,,Mostly Cloudy,310,2007-06-02 00:54:00
9:54 PM,64.9,60.1,84,30.05,7.0,North,4.6,-,N/A,,Partly Cloudy,350,2007-06-02 01:54:00
10:54 PM,64.0,60.1,87,30.05,5.0,NNW,4.6,-,N/A,,Clear,330,2007-06-02 02:54:00
11:54 PM,62.1,60.1,93,30.03,4.0,Calm,Calm,-,N/A,,Partly Cloudy,0,2007-06-02 03:54:00